G3VHU Weather Reports


time (UTC)temp
C
wind
direction
speed
KPH
gust
KPH
rain 1hr
cm
rain 24hr
cm
rain mn
cm
humidity
%
barometer
mb
20260508094748 10 150 9.7 12.9 0.00 0.00 0.00 88 1018.7
20260508094248 10 153 9.7 14.5 0.00 0.00 0.00 88 1018.8
20260508093749 10 174 11.3 14.5 0.00 0.00 0.00 88 1018.9
20260508093248 10 176 11.3 14.5 0.00 0.00 0.00 88 1018.8
20260508092748 10 174 11.3 14.5 0.00 0.00 0.00 88 1018.7
20260508092248 10 174 9.7 16.1 0.00 0.00 0.00 88 1018.7
20260508091748 10 178 9.7 16.1 0.00 0.00 0.00 88 1018.7
20260508091248 10 205 9.7 14.5 0.00 0.00 0.00 89 1018.7
20260508090748 10 174 11.3 16.1 0.00 0.00 0.00 89 1018.7
20260508090248 10 169 11.3 16.1 0.00 0.00 0.00 89 1018.8
20260508085748 10 151 11.3 14.5 0.00 0.00 0.00 89 1018.7
20260508085249 10 168 11.3 16.1 0.00 0.00 0.00 89 1018.7
20260508084749 10 150 12.9 16.1 0.00 0.00 0.00 89 1018.7
20260508084248 10 205 11.3 16.1 0.00 0.00 0.00 89 1018.7
20260508083749 10 176 11.3 16.1 0.00 0.00 0.00 89 1018.7
20260508083248 10 169 11.3 16.1 0.00 0.00 0.00 89 1018.7
20260508082748 10 188 11.3 16.1 0.00 0.00 0.00 89 1018.7
20260508082248 10 178 11.3 16.1 0.00 0.00 0.00 89 1018.7
20260508081748 10 188 12.9 17.7 0.00 0.00 0.00 89 1018.7
20260508081247 10 147 12.9 17.7 0.00 0.00 0.00 89 1018.7
20260508080748 9 148 14.5 20.9 0.00 0.00 0.00 89 1018.6
20260508080248 9 174 14.5 20.9 0.00 0.00 0.00 89 1018.6
20260508075748 9 191 14.5 19.3 0.00 0.00 0.00 89 1018.6
20260508075248 9 154 14.5 19.3 0.00 0.00 0.00 89 1018.6
20260508074748 9 177 14.5 19.3 0.00 0.00 0.00 89 1018.5
20260508074249 9 167 14.5 19.3 0.00 0.00 0.00 89 1018.4
20260508073748 9 172 14.5 19.3 0.00 0.00 0.00 89 1018.4
20260508073246 9 179 14.5 19.3 0.00 0.00 0.00 89 1018.4
20260508072746 9 190 14.5 19.3 0.00 0.00 0.00 88 1018.5
20260508072245 9 197 14.5 22.5 0.00 0.00 0.00 88 1018.4
20260508071745 9 178 16.1 22.5 0.00 0.00 0.00 88 1018.3
20260508071244 9 176 14.5 20.9 0.00 0.00 0.00 88 1018.3
20260508070744 9 185 14.5 19.3 0.00 0.00 0.00 89 1018.2
20260508070243 9 183 14.5 22.5 0.00 0.00 0.00 89 1018.0
20260508065742 9 186 14.5 22.5 0.00 0.00 0.00 89 1018.0
20260508065242 9 174 16.1 20.9 0.00 0.00 0.00 88 1017.9
20260508064742 9 166 14.5 19.3 0.00 0.00 0.00 89 1018.0
20260508064240 9 178 14.5 19.3 0.00 0.00 0.00 89 1017.9
20260508063739 9 167 16.1 20.9 0.00 0.00 0.00 88 1017.8
20260508063240 9 174 16.1 20.9 0.00 0.00 0.00 88 1017.9
20260508062740 9 176 14.5 20.9 0.00 0.00 0.00 88 1017.8
20260508062240 9 173 14.5 20.9 0.00 0.00 0.00 88 1017.8
20260508061740 9 176 14.5 19.3 0.00 0.00 0.00 88 1017.9
20260508061240 9 198 14.5 20.9 0.00 0.00 0.00 89 1017.8
20260508060740 9 167 14.5 20.9 0.00 0.00 0.00 88 1017.8
20260508060238 9 176 14.5 17.7 0.00 0.00 0.00 89 1017.8
20260508055738 9 178 14.5 20.9 0.00 0.00 0.00 88 1017.8
20260508055238 9 186 14.5 20.9 0.00 0.00 0.00 88 1017.8
20260508054738 9 184 14.5 19.3 0.00 0.00 0.00 88 1017.8
20260508054238 9 175 14.5 19.3 0.00 0.00 0.00 88 1017.7
20260508053738 9 172 14.5 22.5 0.00 0.00 0.00 89 1017.7
20260508053238 9 186 16.1 22.5 0.00 0.00 0.00 88 1017.7
20260508052737 9 170 16.1 20.9 0.00 0.00 0.00 88 1017.4
20260508052237 9 195 16.1 20.9 0.00 0.00 0.00 88 1017.5
20260508051738 9 176 14.5 20.9 0.00 0.00 0.00 88 1017.5
20260508051236 9 162 12.9 19.3 0.00 0.00 0.00 88 1017.4
20260508050736 9 184 14.5 19.3 0.00 0.00 0.00 88 1017.5
20260508050236 9 172 12.9 19.3 0.00 0.00 0.00 88 1017.4
20260508045736 9 158 12.9 19.3 0.00 0.00 0.00 88 1017.4
20260508045233 9 183 14.5 19.3 0.00 0.00 0.00 87 1017.5
20260508044734 9 193 14.5 19.3 0.00 0.00 0.00 87 1017.4
20260508044233 9 157 14.5 19.3 0.00 0.00 0.00 87 1017.4
20260508043733 9 176 12.9 19.3 0.00 0.00 0.00 87 1017.4
20260508043234 9 178 12.9 19.3 0.00 0.00 0.00 87 1017.4
20260508042733 9 178 12.9 19.3 0.00 0.00 0.00 87 1017.3
20260508042233 9 185 14.5 17.7 0.00 0.00 0.00 87 1017.4
20260508041733 9 179 14.5 19.3 0.00 0.00 0.00 86 1017.4
20260508041233 9 173 14.5 20.9 0.00 0.00 0.00 86 1017.4
20260508040734 9 169 14.5 20.9 0.00 0.00 0.00 87 1017.3
20260508040234 9 155 14.5 20.9 0.00 0.00 0.00 87 1017.3
20260508035734 9 171 14.5 19.3 0.00 0.00 0.00 87 1017.3
20260508035234 9 173 14.5 19.3 0.00 0.00 0.00 87 1017.3
20260508034734 9 184 14.5 19.3 0.00 0.00 0.00 86 1017.3
20260508034234 9 179 14.5 19.3 0.00 0.00 0.00 86 1017.3
20260508033734 9 168 14.5 20.9 0.00 0.00 0.00 86 1017.3
20260508033233 9 199 14.5 20.9 0.00 0.00 0.00 86 1017.3
20260508032733 9 199 14.5 19.3 0.00 0.00 0.00 86 1017.2
20260508032234 9 195 12.9 19.3 0.00 0.00 0.00 86 1017.3
20260508031734 9 204 12.9 19.3 0.00 0.00 0.00 86 1017.4
20260508031236 9 226 14.5 19.3 0.00 0.00 0.00 86 1017.3
20260508030736 9 179 12.9 19.3 0.00 0.00 0.00 86 1017.2
20260508030234 9 189 12.9 19.3 0.00 0.00 0.00 86 1017.4
20260508025733 9 204 14.5 20.9 0.00 0.00 0.00 87 1017.3
20260508025233 9 200 16.1 22.5 0.00 0.00 0.00 87 1017.2
20260508024733 9 179 16.1 22.5 0.00 0.00 0.00 86 1017.2
20260508024234 9 165 16.1 24.1 0.00 0.00 0.00 86 1017.1
20260508023734 9 194 17.7 24.1 0.00 0.00 0.00 86 1017.1
20260508023234 9 148 17.7 25.7 0.00 0.00 0.00 86 1017.1
20260508022734 9 166 17.7 25.7 0.00 0.00 0.00 86 1017.1
20260508022234 9 170 17.7 24.1 0.00 0.00 0.00 86 1017.1
20260508021734 9 143 17.7 24.1 0.00 0.00 0.00 86 1017.2
20260508021233 9 150 19.3 25.7 0.00 0.00 0.00 86 1017.2
20260508020734 9 172 19.3 25.7 0.00 0.00 0.00 86 1017.1
20260508020233 9 176 19.3 25.7 0.00 0.00 0.00 86 1017.0
20260508015733 9 166 17.7 24.1 0.00 0.00 0.00 86 1017.1
20260508015233 9 184 17.7 25.7 0.00 0.00 0.00 86 1017.0
20260508014732 9 177 19.3 25.7 0.00 0.00 0.00 86 1017.1
20260508014232 9 181 20.9 25.7 0.00 0.00 0.00 85 1017.0
20260508013729 9 163 19.3 25.7 0.00 0.00 0.00 86 1017.1
20260508013229 9 175 19.3 25.7 0.00 0.00 0.00 85 1017.1
20260508012729 9 176 17.7 24.1 0.00 0.00 0.00 85 1017.2
20260508012229 9 178 17.7 25.7 0.00 0.00 0.00 85 1017.2
20260508011730 9 172 17.7 25.7 0.00 0.00 0.00 86 1017.1
20260508011229 9 180 16.1 22.5 0.00 0.00 0.00 85 1017.2
20260508010731 9 188 16.1 24.1 0.00 0.00 0.00 85 1017.2
20260508010229 10 181 17.7 25.7 0.00 0.00 0.00 86 1017.3
20260508005729 10 186 17.7 27.4 0.00 0.00 0.00 85 1017.4
20260508005229 10 171 19.3 29.0 0.00 0.00 0.00 85 1017.3
20260508004729 10 162 19.3 29.0 0.00 0.00 0.00 85 1017.2
20260508004230 10 184 17.7 24.1 0.00 0.00 0.00 85 1017.3
20260508003732 10 183 17.7 24.1 0.00 0.00 0.00 85 1017.3
20260508003227 10 171 19.3 27.4 0.00 0.00 0.00 85 1017.3
20260508002722 10 186 19.3 27.4 0.00 0.00 0.00 86 1017.4
20260508002223 10 174 19.3 27.4 0.00 0.00 0.00 85 1017.3
20260508001723 10 193 19.3 27.4 0.00 0.00 0.00 85 1017.3
20260508001223 10 152 20.9 27.4 0.00 0.00 0.00 85 1017.2
20260508000723 10 173 19.3 25.7 0.00 0.00 0.00 85 1017.3
20260508000223 10 183 17.7 24.1 0.00 0.00 0.00 85 1017.2
20260507235723 10 148 17.7 24.1 0.00 0.00 0.00 86 1017.3
20260507235223 10 153 17.7 24.1 0.00 0.00 0.00 86 1017.3
20260507234723 10 181 17.7 24.1 0.00 0.00 0.00 86 1017.4
20260507234223 10 161 19.3 24.1 0.00 0.00 0.00 86 1017.4
20260507233723 10 179 19.3 24.1 0.00 0.00 0.00 86 1017.4
20260507233223 10 162 17.7 24.1 0.00 0.00 0.00 86 1017.3
20260507232723 10 164 17.7 22.5 0.00 0.00 0.00 86 1017.3
20260507232223 10 167 17.7 22.5 0.00 0.00 0.00 87 1017.3
20260507231723 10 156 16.1 22.5 0.00 0.00 0.00 88 1017.4
20260507231217 10 162 14.5 22.5 0.00 0.00 0.00 89 1017.4
20260507230717 10 129 16.1 24.1 0.00 0.00 0.00 89 1017.4
20260507230216 10 153 17.7 24.1 0.00 0.00 0.00 89 1017.3
20260507225717 10 155 19.3 25.7 0.00 0.00 0.00 88 1017.3
20260507225216 10 160 19.3 25.7 0.00 0.00 0.00 88 1017.3
20260507224716 10 141 17.7 25.7 0.00 0.00 0.00 88 1017.3
20260507224216 10 134 17.7 25.7 0.00 0.00 0.00 88 1017.2
20260507223716 10 150 17.7 25.7 0.00 0.00 0.00 87 1017.2
20260507223217 10 78 17.7 25.7 0.00 0.00 0.00 87 1017.3
20260507222716 10 148 17.7 25.7 0.00 0.00 0.00 87 1017.3
20260507222216 10 152 17.7 25.7 0.00 0.00 0.00 87 1017.3
20260507221717 10 134 17.7 25.7 0.00 0.00 0.00 86 1017.4
20260507221216 10 146 16.1 24.1 0.00 0.00 0.00 86 1017.3
20260507220716 10 201 16.1 24.1 0.00 0.00 0.00 86 1017.4
20260507220209 10 103 17.7 24.1 0.00 0.00 0.00 86 1017.4
20260507215710 9 153 16.1 25.7 0.00 0.00 0.00 86 1017.4
20260507215210 9 157 16.1 25.7 0.00 0.00 0.00 86 1017.4
20260507214710 9 150 16.1 22.5 0.00 0.00 0.00 86 1017.4
20260507214210 9 150 16.1 22.5 0.00 0.00 0.00 86 1017.4
20260507213709 9 155 16.1 24.1 0.00 0.00 0.00 86 1017.4
20260507213211 9 142 17.7 25.7 0.00 0.00 0.00 86 1017.4
20260507212710 9 150 19.3 25.7 0.00 0.00 0.00 86 1017.4
20260507212210 9 151 17.7 25.7 0.00 0.00 0.00 86 1017.4
20260507211710 9 146 19.3 27.4 0.00 0.00 0.00 86 1017.3
20260507211210 9 147 17.7 27.4 0.00 0.00 0.00 85 1017.3
20260507210710 9 139 16.1 24.1 0.00 0.00 0.00 86 1017.3
20260507210210 10 153 14.5 25.7 0.00 0.00 0.00 86 1017.2
20260507205711 9 145 14.5 25.7 0.00 0.00 0.00 85 1017.3
20260507205209 9 167 12.9 20.9 0.00 0.00 0.00 86 1017.3
20260507204704 10 179 14.5 22.5 0.00 0.00 0.00 86 1017.3
20260507204202 10 155 14.5 24.1 0.00 0.00 0.00 85 1017.3
20260507203701 10 71 14.5 24.1 0.00 0.00 0.00 85 1017.3
20260507203207 10 139 16.1 24.1 0.00 0.00 0.00 85 1017.3
20260507202701 10 122 16.1 24.1 0.00 0.00 0.00 84 1017.2
20260507202202 10 125 17.7 22.5 0.00 0.00 0.00 84 1017.1
20260507201703 10 169 17.7 22.5 0.00 0.00 0.00 85 1017.2
20260507201201 10 143 17.7 24.1 0.00 0.00 0.00 85 1017.2
20260507200702 10 165 19.3 25.7 0.00 0.00 0.00 84 1017.2
20260507200202 10 146 19.3 27.4 0.00 0.00 0.00 84 1017.1
20260507195701 10 163 19.3 27.4 0.00 0.00 0.00 85 1017.1
20260507195202 10 139 19.3 29.0 0.00 0.00 0.00 85 1017.0
20260507194702 9 157 19.3 29.0 0.00 0.00 0.00 84 1017.0
20260507194201 9 167 19.3 25.7 0.00 0.00 0.00 85 1017.0
20260507193701 9 150 20.9 30.6 0.00 0.00 0.00 85 1017.0
20260507193155 9 155 19.3 30.6 0.00 0.00 0.00 84 1016.8
20260507192652 10 153 17.7 27.4 0.00 0.00 0.00 84 1016.8
20260507192152 10 84 16.1 27.4 0.00 0.00 0.00 85 1016.6
20260507191651 10 115 17.7 27.4 0.00 0.00 0.00 84 1016.5
20260507191152 10 75 16.1 27.4 0.00 0.00 0.00 84 1016.6
20260507190651 10 162 12.9 25.7 0.00 0.00 0.00 84 1016.6
20260507190152 9 157 14.5 25.7 0.00 0.00 0.00 84 1016.6
20260507185652 9 318 17.7 27.4 0.00 0.00 0.00 84 1016.5
20260507185152 9 175 19.3 32.2 0.00 0.00 0.00 84 1016.5
20260507184652 9 126 19.3 32.2 0.00 0.00 0.00 83 1016.4
20260507184151 9 146 16.1 29.0 0.00 0.00 0.00 83 1016.4
20260507183652 10 180 14.5 27.4 0.00 0.00 0.00 83 1016.4
20260507183151 9 146 14.5 25.7 0.00 0.00 0.00 83 1016.4
20260507182651 10 140 16.1 27.4 0.00 0.00 0.00 83 1016.4
20260507182152 10 117 17.7 27.4 0.00 0.00 0.00 83 1016.4
20260507181646 10 152 14.5 27.4 0.00 0.00 0.00 82 1016.5
20260507181146 10 96 14.5 25.7 0.00 0.00 0.00 83 1016.5
20260507180646 10 113 14.5 25.7 0.00 0.00 0.00 81 1016.4
20260507180146 10 131 12.9 27.4 0.00 0.00 0.00 81 1016.6
20260507175645 10 22 16.1 27.4 0.00 0.00 0.00 81 1016.5
20260507175146 10 116 16.1 25.7 0.00 0.00 0.00 81 1016.6
20260507174646 10 150 14.5 27.4 0.00 0.00 0.00 81 1016.4
20260507174145 10 301 14.5 27.4 0.00 0.00 0.00 81 1016.5
20260507173646 10 174 14.5 27.4 0.00 0.00 0.00 81 1016.6
20260507173146 10 63 14.5 24.1 0.00 0.00 0.00 81 1016.7
20260507172645 10 141 11.3 24.1 0.00 0.00 0.00 81 1016.7
20260507172146 10 108 12.9 27.4 0.00 0.00 0.00 81 1016.7
20260507171645 10 44 11.3 27.4 0.00 0.00 0.00 81 1016.6
20260507171146 10 196 9.7 22.5 0.00 0.00 0.00 81 1016.6
20260507170646 10 113 11.3 22.5 0.00 0.00 0.00 80 1016.5
20260507170147 10 15 11.3 24.1 0.00 0.00 0.00 81 1016.4
20260507165646 10 138 12.9 25.7 0.00 0.00 0.00 80 1016.5
20260507165145 10 157 12.9 25.7 0.00 0.00 0.00 81 1016.6
20260507164644 10 236 12.9 30.6 0.00 0.00 0.00 81 1016.5
20260507164144 10 50 14.5 30.6 0.00 0.00 0.00 81 1016.5
20260507163644 10 84 12.9 25.7 0.00 0.00 0.00 80 1016.6
20260507163143 10 193 12.9 29.0 0.00 0.00 0.00 80 1016.5
20260507162643 10 107 14.5 29.0 0.00 0.00 0.00 80 1016.4
20260507162143 10 52 14.5 27.4 0.00 0.00 0.00 80 1016.5
20260507161643 10 108 12.9 25.7 0.00 0.00 0.00 80 1016.5
20260507161142 10 148 12.9 25.7 0.00 0.00 0.00 80 1016.6
20260507160636 10 301 11.3 24.1 0.00 0.00 0.00 81 1016.7
20260507160129 10 37 12.9 25.7 0.00 0.00 0.00 80 1016.6
20260507155623 10 63 12.9 27.4 0.00 0.00 0.00 80 1016.7
20260507155123 10 131 12.9 27.4 0.00 0.00 0.00 80 1016.6
20260507154623 10 133 12.9 27.4 0.00 0.00 0.00 79 1016.7
20260507154124 10 138 12.9 27.4 0.00 0.00 0.00 80 1016.7
20260507153624 10 105 12.9 25.7 0.00 0.00 0.00 80 1016.8
20260507153123 10 96 14.5 25.7 0.00 0.00 0.00 80 1016.8
20260507152623 10 72 12.9 25.7 0.00 0.00 0.00 80 1016.8
20260507152123 10 97 11.3 25.7 0.00 0.00 0.00 80 1016.9
20260507151623 10 89 12.9 25.7 0.00 0.00 0.00 80 1016.8
20260507151123 10 43 11.3 25.7 0.00 0.00 0.00 80 1016.8
20260507150623 10 72 11.3 24.1 0.00 0.00 0.00 80 1016.9
20260507150122 10 143 12.9 24.1 0.00 0.00 0.00 80 1016.9
20260507145622 10 336 12.9 27.4 0.00 0.00 0.00 80 1016.9
20260507145116 10 323 14.5 27.4 0.00 0.00 0.00 80 1017.0
20260507144615 10 117 12.9 22.5 0.00 0.00 0.00 78 1017.0
20260507144115 10 94 12.9 25.7 0.00 0.00 0.00 79 1017.0
20260507143615 10 145 12.9 29.0 0.00 0.00 0.00 79 1017.1
20260507143115 10 80 12.9 29.0 0.00 0.00 0.00 80 1017.0
20260507142615 10 17 11.3 24.1 0.00 0.00 0.00 80 1017.0
20260507142115 10 207 11.3 24.1 0.00 0.00 0.00 79 1017.0
20260507141615 10 131 11.3 24.1 0.00 0.00 0.00 79 1017.1
20260507141115 10 11 12.9 29.0 0.00 0.00 0.00 78 1017.1
20260507140615 10 122 14.5 29.0 0.00 0.00 0.00 79 1017.1
20260507140115 10 113 12.9 25.7 0.00 0.00 0.00 81 1017.1
20260507135614 10 59 14.5 29.0 0.00 0.00 0.00 80 1017.1
20260507135115 10 171 14.5 29.0 0.00 0.00 0.00 81 1017.1
20260507134616 10 117 12.9 22.5 0.00 0.00 0.00 80 1017.0
20260507134114 10 85 12.9 22.5 0.00 0.00 0.00 80 1017.1
20260507133611 10 79 12.9 24.1 0.00 0.00 0.00 80 1017.1
20260507133110 10 156 12.9 24.1 0.00 0.00 0.00 79 1017.1
20260507132612 10 328 14.5 24.1 0.00 0.00 0.00 80 1017.2
20260507132112 10 33 14.5 25.7 0.00 0.00 0.00 80 1017.1
20260507131611 10 165 16.1 27.4 0.00 0.00 0.00 81 1017.2
20260507131122 10 159 16.1 29.0 0.00 0.00 0.00 80 1017.1
20260507130610 10 46 14.5 29.0 0.00 0.00 0.00 79 1017.2
20260507130113 10 110 12.9 24.1 0.00 0.00 0.00 79 1017.1
20260507125611 10 139 14.5 24.1 0.00 0.00 0.00 79 1017.2
20260507125112 10 120 14.5 24.1 0.00 0.00 0.00 79 1017.2
20260507124612 10 326 16.1 27.4 0.00 0.00 0.00 79 1017.2
20260507124122 10 96 16.1 27.4 0.00 0.00 0.00 79 1017.2
20260507123611 10 85 12.9 25.7 0.00 0.00 0.00 78 1017.3
20260507123111 10 354 12.9 32.2 0.00 0.00 0.00 79 1017.3
20260507122611 10 118 14.5 32.2 0.00 0.00 0.00 79 1017.4
20260507122109 10 153 14.5 24.1 0.00 0.00 0.00 80 1017.3
20260507121600 10 110 12.9 24.1 0.00 0.00 0.00 78 1017.4
20260507121101 10 89 9.7 20.9 0.00 0.00 0.00 77 1017.4
20260507120601 10 305 11.3 20.9 0.00 0.00 0.00 78 1017.4
20260507115601 10 77 12.9 24.1 0.00 0.00 0.00 78 1017.4
20260507115102 10 54 12.9 24.1 0.00 0.00 0.00 78 1017.4
20260507114600 10 69 11.3 24.1 0.00 0.00 0.00 77 1017.4
20260507114101 10 352 11.3 22.5 0.00 0.00 0.00 77 1017.5
20260507113601 9 21 11.3 24.1 0.00 0.00 0.00 78 1017.5
20260507113101 10 249 11.3 24.1 0.00 0.00 0.00 77 1017.6
20260507112600 10 163 11.3 24.1 0.00 0.00 0.00 78 1017.6
20260507112101 10 83 9.7 24.1 0.00 0.00 0.00 76 1017.6
20260507111600 10 41 9.7 19.3 0.00 0.00 0.00 77 1017.7
20260507111100 10 131 11.3 19.3 0.00 0.00 0.00 76 1017.7
20260507110555 10 43 9.7 22.5 0.00 0.00 0.00 76 1017.8
20260507110051 10 130 8.0 22.5 0.00 0.00 0.00 76 1017.9
20260507105550 10 81 8.0 17.7 0.00 0.00 0.00 76 1017.7
20260507105052 9 57 9.7 24.1 0.00 0.00 0.00 77 1017.8
20260507104551 9 127 11.3 24.1 0.00 0.00 0.00 76 1017.8
20260507104050 9 112 9.7 19.3 0.00 0.00 0.00 76 1017.7
20260507103551 9 40 9.7 20.9 0.00 0.00 0.00 77 1017.8
20260507103051 9 109 9.7 20.9 0.00 0.00 0.00 78 1017.8
20260507102550 9 173 9.7 20.9 0.00 0.00 0.00 76 1017.9
20260507102051 9 186 11.3 20.9 0.00 0.00 0.00 77 1017.9
20260507101550 9 57 9.7 20.9 0.00 0.00 0.00 77 1017.7
20260507101051 9 11 9.7 19.3 0.00 0.00 0.00 76 1017.7
20260507100550 9 122 9.7 22.5 0.00 0.00 0.00 76 1017.7
20260507100051 9 93 9.7 22.5 0.00 0.00 0.00 77 1017.7
20260507095550 9 101 9.7 17.7 0.00 0.00 0.00 76 1017.8